Weather Roundup
Issued by NWS Chicago, IL

Home | Current Version | Previous Version | Graphics & Text | Print | Product List | Glossary On
Versions: 1 2 3 4 5 6 7 8 9 10 11 12 13 14 15 16 17 18 19 20 21 22 23 24 25 26 27 28 29 30 31 32 33 34 35 36 37 38 39 40 41 42 43 44 45 46 47 48 49 50
000
NZUS59 KLOT 292212
HRRLOT

CHICAGO AREA WEATHER ROUNDUP
NATIONAL WEATHER SERVICE CHICAGO/ROMEOVILLE IL
500 PM CDT MON JUN 29 2015

NOTE: "FAIR" INDICATES FEW OR NO CLOUDS BELOW 12,000 FEET WITH NO
SIGNIFICANT WEATHER AND/OR OBSTRUCTIONS TO VISIBILITY.

* THESE STATIONS ARE NOT UNDER NWS QUALITY CONTROL. THEY ALSO MAY NOT
  REPORT WEATHER SUCH AS PRECIPITATION OR FOG.

ILZ005-006-012>014-019>023-292300-
NORTHEAST ILLINOIS

CITY           SKY/WX    TMP DP  RH WIND       PRES   REMARKS
OHARE          LGT RAIN  68  64  87 CALM      29.80S FOG
MIDWAY         CLOUDY    73  65  75 SW3       29.79F
AURORA         CLOUDY    71  63  75 N3        29.81S
LANSING*       PTSUNNY   70  62  77 S3        29.80F
JOLIET*        PTSUNNY   70  67  89 CALM      29.81R
WAUKEGAN       CLOUDY    67  62  84 SE8       29.80S
DUPAGE AIRPORT TSTM      67  61  81 SW12G29   29.81R VSB 1/4
WHEELING       CLOUDY    70  63  78 SW5       29.81S
KANKAKEE*      LGT RAIN  68  65  89 E5        29.81F
MORRIS*        HVY RAIN  67  65  93 SW3       29.80R
LEWIS AIRPORT* CLOUDY    68  63  83 CALM      29.81R
NORTHERLY IS     N/A     66  62  87 NE2         N/A
$$

WIZ051-052-058>065-066-070>072-292300-
SOUTHEAST WISCONSIN

CITY           SKY/WX    TMP DP  RH WIND       PRES   REMARKS
MILWAUKEE      PTSUNNY   70  61  73 SE10      29.80S
KENOSHA*       CLOUDY    69  62  78 SE9       29.80S
RACINE*        PTSUNNY   68  61  78 S8        29.82S
BURLINGTON     PTSUNNY   70  62  75 S5        29.80S
WAUKESHA       MOSUNNY   70  61  73 S6        29.81S
WEST BEND      HVY RAIN  68  59  73 E9        29.80R
$$

INZ001>003-010>013-019-020-292300-
NORTHWEST INDIANA

CITY           SKY/WX    TMP DP  RH WIND       PRES   REMARKS
GARY*          PTSUNNY   73  66  78 SE7       29.80F
MICHIGAN CITY* NOT AVBL
RENSSELAER*    NOT AVBL
VALPARAISO     CLOUDY    71  64  78 E5        29.81S
$$

LMZ740>746-292300-
SOUTHERN LAKE MICHIGAN

STATION/POSITION TIME  SKY/WX   TEMP WIND        PRES    VSBY
                                AIR  DIR/SP/G
                 (UTC)          (F)  (DEG/KT/KT) (MB)    (MI)
HARRISON CRIB    2100            65  140/  6/  7   N/A
BURNHAM HARBOR   2200            66   70/  2/  3   N/A
CALUMET HARBOR   2100            67   40/  4/  5   N/A
BURNS HARBOR     2100            71  200/  6/  8 1009.8F
MICHIGAN CITY    2100            68  310/  7/  8   N/A
$$

ABBREVIATIONS USED IN REMARKS
   TC - TEMPERATURE IN CELSIUS
  WCI - WIND CHILL INDEX
   HX - HEAT INDEX
  VSB - VISIBILITY
$$



USA.gov is the U.S. government's official web portal to all federal, state and local government web resources and services.